www.pogodaiklimat.ru

Погода и климат >> Архив погоды >> Мексика >> Altar Son


ПОГОДА в Altar Son

  • Прогноз погоды в Altar Son
  • Монитор погоды в Altar Son
  • Климат города

АРХИВ ПОГОДЫ в Altar Son

Время (UTC), дата Ветер
(напр.,м/с)
 
Видим.   Явления Облачность Т
(С)
Тd
(С)
f
(%)
Тe
(С)
Тes
(С)
Комфортность P
(гПа)
Po
(гПа)
Тmin
(С)
Tmax
(С)
R
(мм)
R24
(мм)
S
(см)
00 11.11 ЮЗ 1 30 км ясно +32.0 +12.1 30 +32 +33 жарко 1007.0 962.4 +12.0 +32.5
03 11.11 С 1 20 км ясно +26.6 +10.6 37 +27 +27 жарко 1006.0 962.0
15 11.11 В 1 30 км ясно +15.0 +3.1 45 +16 +16 1013.4 967.1
18 11.11 ЮВ 1 30 км ясно +23.6 +13.8 54 +26 +35 жарко 1012.0 966.5 +15.0 +24.0
21 11.11 Ю 1 30 км ясно +29.0 +9.2 29 +29 +37 жарко 1011.0 966.1
03 12.11 С 1 20 км ясно +24.0 +14.8 56 +27 +27 жарко 1009.0 965.0
15 12.11 СВ 1 30 км ясно +14.0 +10.4 79 +14 +15 1014.0 968.7
18 12.11 В 1 30 км ясно +24.0 +14.8 56 +27 +36 жарко 1013.0 968.2 +12.0 +24.5
21 12.11 Ю 1 30 км ясно +28.0 +20.9 65 +35 +44 очень
душно
1012.0 967.6
00 13.11 ЮЗ 1 30 км ясно +32.0 +12.1 30 +32 +33 жарко 1011.0 967.2 +12.0 +32.5
03 13.11 С 1 20 км ясно +25.6 +11.9 42 +27 +27 жарко 1010.0 966.6
12 13.11 СВ 1 20 км ясно +13.6 +3.1 49 +14 +14 1014.0 967.5 +13.5 +32.5
15 13.11 СВ 1 30 км ясно +14.8 +2.5 43 +16 +16 1015.3 968.8
18 13.11 СВ 1 30 км ясно +24.0 +8.2 36 +24 +33 комфорт 1015.5 969.6 +12.6 +24.2
21 13.11 ЮЗ 2 30 км ясно +30.4 +12.0 32 +31 +38 жарко 1012.2 967.0
00 14.11 З 2 30 км ясно +30.6 +8.3 25 +30 +30 жарко 1011.6 966.8 +12.0 +32.3
03 14.11 Ю 1 10 км ясно +23.0 +14.7 60 +27 +27 душно 1012.5 967.6
12 14.11 СВ 1 20 км ясно +13.6 +2.6 47 +14 +14 1013.5 967.0 +13.5 +32.3
15 14.11 СВ 1 30 км ясно +15.0 +2.8 44 +16 +16 1014.6 968.2
18 14.11 СВ 1 30 км ясно +26.2 +6.4 28 +26 +35 жарко 1014.7 968.5 +12.5 +26.5
21 14.11 СЗ 1 30 км ясно +34.2 +3.3 14 +31 +40 жарко 1012.0 966.9
00 15.11 ЮЗ 3 30 км ясно +32.8 +3.8 16 +30 +30 жарко 1009.9 965.2 +12.5 +34.5
03 15.11 Ю 1 10 км ясно +24.2 +6.4 32 +24 +24 комфорт 1010.1 965.4
12 15.11 СВ 1 20 км ясно +12.6 +11.1 91 +13 +13 1012.5 965.5 +12.5 +34.5
15 15.11 СВ 1 30 км ясно +14.6 +10.9 78 +15 +16 1013.4 966.8
21 15.11 З 1 30 км ясно +33.0 +5.3 18 +31 +39 жарко 1010.3 965.1
00 16.11 З 2 30 км ясно +32.4 +0.5 13 +29 +30 жарко 1010.0 965.2 +12.0 +33.8
03 16.11 З 1 10 км ясно +23.7 +5.3 30 +24 +24 комфорт 1010.3 965.5
12 16.11 СВ 1 20 км ясно +14.0 +3.6 49 +15 +15 1011.9 965.6 +13.8 +33.8
15 16.11 СВ 1 30 км ясно +16.0 0.0 34 +17 +17 1012.4 966.1
18 16.11 ЮЗ 1 30 км ясно +26.4 +4.9 25 +26 +34 жарко 1012.2 966.6 +12.8 +26.5
21 16.11 Ю 1 30 км ясно +32.4 +4.1 17 +30 +38 жарко 1010.2 965.2
00 17.11 ЮЗ 2 30 км ясно +31.5 +3.6 17 +29 +29 жарко 1009.9 965.2 +12.8 +35.5
03 17.11 ЮВ 1 10 км ясно +22.6 +6.6 36 +23 +23 комфорт 1010.3 965.5
15 17.11 В 1 30 км ясно +14.0 +10.4 79 +14 +15 1013.6 967.4
18 17.11 Ю 1 30 км ясно +22.6 +6.6 36 +23 +32 комфорт 1013.0 967.0 +12.0 +23.0

 

Местоположение метеостанции Altar Son (Мексика): широта 30.71 долгота -111.84 высота над уровнем моря 397 м.

В архиве по умолчанию представлена погода в Altar Son за последнюю неделю. Архивные данные за месяц целиком и за предыдущие месяцы, начиная с января 2011 года, Вы можете получить, выбрав интересующий диапазон дат из раскрывающегося списка и нажав кнопку "Ввод!".

Внимание! Время в таблицах - всемирное. Для получения местного времени необходимо прибавить поправку, которая в Altar Son равна -8 ч.

Смотрите также архив погоды в соседних городах и на ближайших метеорологических станциях:

Погода в Puerto Penasco (Мексика) (176 км)
Погода в Hermosillo (Мексика) (196 км)
Погода в Hermosillo la Magna (Мексика) (201 км)
Погода в Pilares de Nacoz (Мексика) (210 км)
Погода в San Felipe (Мексика) (285 км)
Погода в Guaymas (Мексика) (324 км)
Погода в Empalme (Мексика) (326 км)
Погода в Ejido Nuevo Leon (Мексика) (362 км)
Погода в Nueva Casas Grandes (Мексика) (379 км)
Погода в Santa Rosalia (Мексика) (384 км)

Пояснения к столбцам:

Ветер - указаны скорость ветра в м/с - средняя за 10 мин, порывы в срок и между сроками (в фигурных скобках) и направление, откуда дует ветер: С - северный, СВ - северо-восточный, В - восточный, ЮВ - юго-восточный, Ю - южный, ЮЗ - юго-западный, З - западный, СЗ - северо-западный.
Видимость - горизонтальная дальность видимости в метрах или километрах. При видимости от 1 до 10 км при отсутствии осадков обычно наблюдается дымка, при ухудшении видимости до 1 км и менее - туман. В сухую погоду видимость может ухудшаться дымом, пылью или мглою.
Явления - указаны атмосферные явления, наблюдавшиеся в срок или в последний час перед сроком; фигурными скобками обозначены явления, наблюдавшиеся между сроками (за 1-3 часа до срока); квадратными скобками обозначены град или гололедные отложения с указанием их диаметра в мм.
Облачность - указаны через наклонную черту общая и нижняя облачность в баллах и высота нижней границы облаков в метрах; квадратными скобками обозначены формы облаков: Ci - перистые, Cs - перисто-слоистые, Cc - перисто-кучевые, Ac - высококучевые, As - высокослоистые, Sc - слоисто-кучевые, Ns - слоисто-дождевые, Cu - кучевые, Cb - кучево-дождевые. Подробнее классификацию облаков см. в Атласе облаков (PDF).
T - Температура воздуха - температура, измеренная на высоте 2 м над землей.
Td - Температура точки росы - температура, при понижении до которой содержащийся в воздухе водяной пар достигнет насыщения.
f - Относительная влажность воздуха - влажноcть воздуха, измеренная на высоте 2 м над землей.
Te - Эффективная температура - температура, которую ощущает одетый по сезону человек в тени. Характеристика душности погоды. При расчете учитывается влияние влажности воздуха и скорости ветра на теплоощущения человека.
Tes - Эффективная температура на солнце - температура, которую ощущает человек, с поправкой на солнечный нагрев. Характеристика знойности погоды. Зависит от высоты солнца над горизонтом, облачности и скорости ветра. Ночью, в пасмурную погоду, а также при ветре 12 м/с и более поправка равна нулю.
P - Атмосферное давление - приведенное к уровню моря атмосферное давление.
Po - Атмосферное давление - измеренное на уровне метеостанции атмосферное давление.
Tmin - Минимальная температура - минимум температуры воздуха на высоте 2 м над землей.
Tmax - Максимальная температура - максимум температуры воздуха на высоте 2 м над землей.
R - Количество осадков - Количество выпавших осадков за период времени, мм. При наведении курсора мыши на число - период времени, за который выпало указанное количество осадков.
R24 - Количество осадков - Количество выпавших осадков за 24 часа, мм.
S - Снежный покров - Высота снежного покрова, см. При наведении курсора мыши на число - состояние снежного покрова и степень покрытия местности в баллах.